Temperature
11 12 12 13 10 9 10 10 11 12 13 14 15 16 15 16 17 17 18 18 18 18 18 17 17 17 17 17 17 17 17 17 17 17 17 17 17 17 17 17 16 16 16 16 16 16 16 16 16
11 12 12 12 9 9 10 10 10 12 13 14 15 15 15 16 17 17 17 18 18 18 17 17 17 17 17 17 17 17 17 17 17 17 17 17 16 16 17 16 16 16 16 16 16 16 16 16 16
11 11 12 8 8 9 10 10 10 12 13 13 14 15 15 16 16 16 17 17 17 17 17 17 17 17 17 17 17 17 17 17 17 17 16 16 16 16 16 16 16 16 16 16 16 16 16 16 16
10 11 10 7 8 8 9 10 10 11 12 13 13 13 15 15 15 16 16 17 17 17 17 16 16 16 16 16 16 17 16 16 16 16 16 16 16 16 16 16 16 16 16 16 16 16 16 16 16
10 10 7 7 7 8 8 9 11 11 11 12 13 12 14 14 15 15 16 16 16 16 16 16 16 16 16 16 16 16 16 16 16 16 16 16 16 16 16 16 16 16 16 16 16 16 16 16 16
10 7 6 7 7 8 8 10 10 10 11 12 12 12 13 14 15 15 15 15 16 16 16 16 16 16 16 16 16 16 16 16 16 16 16 16 16 16 16 16 16 16 16 16 16 16 16 16 15
8 6 6 6 7 7 9 10 10 10 10 11 12 11 13 14 14 15 15 15 15 15 15 15 15 15 15 16 16 16 16 16 16 16 15 15 15 16 16 16 16 16 16 16 16 16 15 15 15
9 5 6 6 6 8 9 10 10 10 10 11 11 11 12 13 14 14 14 14 14 15 15 15 15 15 15 15 15 15 15 15 15 15 15 15 15 15 15 15 15 15 15 16 16 15 15 15 15
8 5 5 6 7 8 9 9 10 10 10 11 11 11 12 12 13 13 13 14 14 14 14 15 15 15 15 15 15 15 15 15 15 15 15 15 15 15 15 15 15 15 15 15 15 15 15 15 15
7 5 6 7 7 8 9 9 9 9 9 10 10 11 11 12 12 12 12 13 13 14 14 14 14 15 15 15 15 15 15 15 15 15 15 15 15 15 15 15 15 15 15 15 15 15 15 15 15
6 5 6 7 8 8 8 8 9 9 8 9 10 11 11 11 11 12 12 12 13 13 14 14 14 14 14 14 14 14 14 14 14 14 14 15 15 14 15 15 15 15 15 15 15 15 15 15 15
6 6 7 7 8 8 8 8 8 8 9 10 10 10 10 10 11 11 12 12 12 13 13 13 14 14 14 14 14 14 14 14 14 14 14 14 14 14 14 14 15 15 15 15 15 15 15 15 15
6 6 7 8 8 8 8 8 8 8 9 9 9 10 10 10 10 11 11 11 12 12 13 13 13 13 13 13 13 14 14 14 14 14 14 14 14 14 14 14 15 15 15 15 15 15 15 15 15
6 6 7 7 7 7 7 7 7 8 9 9 9 9 9 10 10 10 11 11 11 12 12 12 12 13 13 13 13 13 13 14 14 14 14 14 14 14 14 14 14 15 15 15 15 15 15 14 14
6 6 6 7 7 7 7 6 6 8 8 8 8 9 9 9 10 10 10 11 11 11 11 12 12 12 12 13 13 13 13 13 13 13 13 14 14 14 14 14 14 14 14 14 14 14 14 14 14
6 6 5 6 7 7 7 6 7 8 8 8 8 8 9 9 9 10 10 10 10 11 11 11 12 12 12 12 12 13 13 13 13 13 13 13 13 14 14 14 14 14 14 14 14 14 14 14 14
5 5 5 6 6 6 6 5 6 7 7 7 8 8 8 8 9 9 10 10 10 10 10 11 11 11 11 12 12 12 12 12 13 13 13 13 13 13 14 14 14 14 14 14 14 14 14 14 14
5 5 5 5 6 6 5 5 6 7 7 7 7 7 7 8 8 9 9 9 10 10 10 10 11 11 11 11 11 12 12 12 12 12 13 13 13 13 13 14 14 14 14 14 14 14 14 14 13
5 5 5 5 6 5 5 5 6 6 6 6 6 7 7 7 8 8 9 9 9 10 10 10 10 10 11 11 11 11 12 12 12 12 12 12 13 13 13 13 13 13 13 13 13 13 13 13 13
5 5 5 5 6 6 5 5 6 6 6 6 6 6 7 7 8 8 8 9 9 9 9 9 10 10 10 11 11 11 11 12 12 12 12 12 12 12 13 13 13 13 13 13 13 13 13 13 13
5 5 5 5 5 5 5 5 6 6 6 6 6 6 6 7 7 8 8 8 9 9 9 9 9 10 10 10 10 11 11 11 11 11 12 12 12 12 12 13 13 13 13 13 13 13 13 13 12
5 6 6 5 5 4 5 5 5 5 5 5 6 6 6 6 7 7 8 8 8 8 9 9 9 9 10 10 10 10 10 11 11 11 11 12 12 12 12 12 12 12 12 13 13 13 12 12 12
5 6 5 5 5 4 4 4 5 5 5 5 5 6 6 6 6 7 7 7 8 8 8 9 9 9 9 10 9 10 10 10 11 11 11 11 11 11 12 12 12 12 12 12 13 12 12 12 12
6 5 5 4 4 5 4 4 5 4 5 5 5 5 6 6 6 6 7 7 7 8 8 8 9 9 9 9 9 9 10 10 10 10 10 11 11 11 11 11 11 12 12 12 12 12 12 12 12
5 4 4 4 4 4 5 5 5 5 5 5 5 5 5 5 6 6 6 6 7 7 7 8 8 9 9 9 9 9 9 10 10 10 10 10 11 11 11 11 11 11 11 12 12 12 12 12 11
5 5 4 5 4 4 4 4 5 5 5 5 5 5 5 5 5 5 6 6 6 6 7 7 7 8 8 8 9 9 9 9 9 10 10 10 10 10 10 10 11 11 11 11 11 11 11 11 11
5 4 4 3 3 3 4 4 5 5 5 5 5 5 5 5 5 5 5 5 5 6 6 6 7 7 8 8 8 8 9 9 9 9 10 10 10 10 10 10 10 10 10 11 11 10 11 11 10
5 4 3 3 4 5 5 4 5 5 5 4 4 4 4 4 5 5 5 5 5 5 6 6 7 7 7 7 8 8 8 8 9 9 9 9 9 9 9 9 10 10 10 10 10 10 10 10 10
4 4 3 3 3 4 4 5 5 4 4 4 4 4 4 4 4 4 4 4 5 5 5 6 6 7 7 7 7 8 8 8 8 8 8 8 8 9 9 9 9 9 9 9 9 9 9 9 9
5 4 3 4 3 2 3 4 5 4 4 4 4 4 4 4 4 4 4 4 4 5 5 5 6 6 6 6 7 7 7 7 7 8 8 8 8 8 8 8 9 9 9 9 9 9 9 9 9
Wind_Speed
8 6 3 4 4 1 7 6 3 2 3 2 2 3 4 5 4 4 3 2 2 4 10 15 19 20 21 20 20 19 20 21 21 22 22 22 22 21 21 20 20 19 19 19 19 19 19 19 19
4 3 5 5 4 5 7 6 5 4 2 4 3 2 2 4 3 4 4 4 2 3 8 12 17 20 20 20 20 20 20 21 21 21 22 22 21 21 21 20 20 20 19 19 19 19 19 19 18
3 5 4 4 5 7 6 3 4 5 4 3 3 3 2 3 4 3 4 3 1 2 5 9 15 18 20 20 20 20 20 20 21 21 21 21 21 21 20 20 20 20 20 19 19 19 18 18 17
4 5 4 2 8 6 4 2 2 5 5 2 1 6 4 2 2 3 5 2 1 1 3 8 13 16 19 20 20 20 20 20 20 20 21 21 21 21 20 20 20 20 20 20 19 19 18 17 16
4 4 2 3 7 5 4 5 3 3 4 3 2 4 5 3 3 3 3 2 0 1 2 7 12 15 17 20 21 20 20 20 20 21 21 21 21 21 20 20 21 21 20 19 19 18 17 16 16
4 4 2 5 7 5 5 5 2 3 4 4 3 4 5 2 3 4 3 3 2 2 2 5 11 13 16 18 20 21 20 19 20 20 21 21 20 20 21 21 21 20 20 19 18 17 16 16 16
4 4 4 4 4 5 5 2 3 3 5 5 2 3 5 4 4 4 4 3 2 1 1 2 7 10 14 16 18 19 20 20 20 19 20 20 20 20 21 21 21 20 19 19 18 17 16 16 15
4 4 2 4 4 6 3 2 2 3 6 4 3 4 5 5 5 4 4 4 2 1 2 1 3 6 9 12 16 17 19 19 20 19 19 18 19 20 21 21 20 20 19 18 17 17 16 15 15
4 2 4 5 5 5 2 2 3 3 4 4 4 6 7 6 4 4 4 4 3 3 2 2 3 4 6 9 12 15 16 18 18 18 18 18 16 17 18 19 20 19 18 17 17 16 15 15 14
4 3 7 5 4 4 4 4 5 4 6 5 7 7 7 5 3 3 5 5 5 5 4 3 3 4 6 7 9 10 12 13 14 14 16 15 14 15 16 18 19 19 18 17 16 15 14 12 11
4 6 5 6 6 6 7 7 5 6 8 8 9 9 7 6 5 5 6 6 6 6 5 4 4 4 6 5 6 6 8 9 11 13 15 14 13 13 12 13 15 15 15 13 13 12 11 10 10
4 6 6 5 5 5 7 6 6 8 11 9 9 8 7 7 7 7 7 7 6 5 5 5 5 4 6 5 5 5 6 7 7 11 14 13 9 8 9 9 11 12 12 10 10 9 9 9 9
4 5 6 8 9 8 9 10 8 11 12 9 8 8 8 8 7 7 6 7 5 6 5 4 4 5 6 6 5 6 6 7 9 11 14 14 9 9 8 8 10 10 11 10 8 8 8 7 7
4 5 7 8 8 5 7 10 6 10 8 7 8 9 8 8 7 6 6 6 5 5 5 5 4 5 5 6 5 5 6 8 10 10 12 15 12 9 9 8 8 9 11 11 10 9 7 6 6
2 5 7 5 4 3 3 7 5 10 7 7 8 9 8 7 5 6 6 6 5 5 5 5 5 4 6 6 6 5 5 7 8 9 12 13 13 12 9 8 8 9 12 11 9 7 6 5 4
2 2 4 5 3 2 1 8 8 7 4 7 7 7 7 6 5 5 5 4 4 4 5 5 5 4 5 6 6 5 5 6 6 9 11 13 14 14 10 8 8 10 11 9 7 6 5 5 5
2 3 4 6 3 2 1 7 9 8 5 6 7 6 6 6 6 5 4 4 4 4 4 4 4 5 5 6 6 5 5 5 6 8 9 11 13 14 11 8 8 10 8 7 8 6 5 5 5
3 3 4 5 4 3 4 8 11 9 6 6 7 6 5 5 7 6 4 4 4 3 3 3 4 5 5 5 4 4 5 5 5 6 8 10 11 13 11 8 9 9 8 7 7 7 5 5 5
2 3 6 6 4 3 6 9 11 9 6 7 7 6 6 6 6 5 4 3 2 1 3 3 3 5 5 4 5 5 6 5 5 6 8 10 11 12 10 8 9 9 9 9 9 6 6 4 4
2 4 6 6 3 3 6 9 8 6 5 5 6 7 7 7 7 5 3 2 2 2 3 3 4 5 5 4 4 4 5 5 6 6 7 10 11 12 11 10 9 9 8 9 9 7 5 4 6
3 4 4 5 6 3 5 7 5 5 4 5 5 6 6 7 7 6 4 3 2 2 2 3 4 4 4 4 3 3 3 3 3 5 6 8 10 11 11 11 10 10 9 10 10 10 9 6 6
4 4 5 4 4 4 4 5 6 6 7 7 8 8 8 8 7 6 4 4 3 3 3 2 2 3 4 4 4 6 5 4 5 6 6 7 9 10 10 11 11 11 9 9 10 10 8 9 8
4 3 3 3 2 3 2 1 7 5 7 9 9 9 9 8 7 7 5 5 5 4 3 3 2 3 3 4 4 6 5 4 3 5 6 7 7 8 9 9 10 11 10 10 10 10 9 8 8
2 2 1 1 1 2 3 2 5 4 6 9 9 10 9 9 8 8 7 6 6 6 5 3 2 3 2 3 4 5 6 5 5 6 6 6 6 6 8 8 9 10 9 10 11 11 11 9 9
3 3 4 5 3 4 2 2 5 5 6 7 8 9 8 8 8 8 9 8 7 7 6 5 4 4 3 2 3 4 5 5 6 6 6 5 5 5 8 8 8 9 9 9 9 10 11 10 10
0 3 3 1 3 4 3 3 6 5 5 6 6 6 7 8 8 8 8 8 7 7 7 6 5 5 4 2 3 3 4 4 5 6 6 6 6 6 7 8 8 8 9 9 9 8 9 10 11
2 1 2 3 0 2 4 6 6 3 6 7 8 8 9 9 9 9 9 8 7 7 7 6 5 5 5 3 1 0 1 2 3 3 4 4 4 5 7 8 8 8 9 9 9 8 9 9 10
2 3 3 2 1 3 5 4 5 6 6 7 8 8 9 9 9 9 8 8 8 8 7 6 5 5 4 4 2 1 1 1 1 2 3 4 5 5 7 7 8 8 9 10 10 9 9 10 9
2 2 2 2 2 2 3 5 3 4 3 4 6 6 7 8 9 9 8 8 8 8 8 7 6 6 6 5 4 3 2 2 1 1 2 3 4 5 6 7 8 8 8 9 10 10 10 11 10
2 3 3 2 2 2 2 5 4 2 2 2 4 5 6 6 7 8 8 8 8 8 8 8 8 7 6 5 5 4 3 2 2 1 2 2 3 4 5 6 7 7 7 8 10 10 10 11 11
Wind_Direction
1 5 45 56 64 79 237 236 226 239 233 249 253 231 212 211 195 223 315 359 357 161 166 170 169 166 163 160 157 153 151 149 148 147 147 146 145 144 143 141 140 136 132 129 127 124 120 116 113
360 23 52 67 130 216 250 233 227 232 267 308 301 262 253 260 274 304 335 328 354 153 162 168 167 167 165 162 160 158 156 154 152 151 150 149 148 147 146 144 142 138 134 132 129 126 123 120 117
31 46 81 101 177 206 228 222 232 279 300 317 318 296 249 262 309 318 317 307 39 129 155 165 167 168 167 164 163 162 161 159 157 155 154 152 151 150 149 147 144 139 136 134 132 130 126 124 121
64 49 59 123 225 228 233 251 281 315 324 324 316 299 283 301 315 307 325 339 94 135 156 168 169 170 172 169 165 165 165 164 162 159 157 156 155 153 152 148 143 140 138 137 135 133 130 128 125
58 79 93 241 245 252 257 262 269 288 295 305 308 282 281 305 313 315 341 344 171 179 163 177 174 176 175 174 170 167 167 168 167 164 162 160 159 156 153 147 143 143 142 141 138 136 134 133 130
62 79 144 238 249 263 262 253 251 257 268 289 282 263 258 290 343 332 338 331 293 215 181 186 183 178 178 177 175 172 171 170 168 169 167 165 162 158 153 150 148 148 148 146 143 140 137 136 134
110 123 195 231 260 266 255 242 221 241 263 263 255 264 275 296 319 331 338 328 311 240 172 191 188 182 180 178 177 176 174 172 170 170 169 166 164 159 156 154 153 154 153 151 148 145 141 139 138
121 123 200 232 241 257 261 265 240 236 260 258 211 230 262 288 317 332 347 337 309 268 208 193 196 181 178 178 179 179 176 174 173 172 167 163 163 162 159 158 158 158 157 154 151 148 145 142 142
94 107 224 224 220 248 263 281 288 270 256 264 238 238 263 291 323 341 333 333 304 275 253 203 196 185 178 176 177 178 177 173 172 170 165 161 162 161 161 161 161 161 160 157 154 151 147 143 143
113 194 229 225 219 252 282 272 283 294 280 271 271 266 280 285 295 298 293 288 284 263 246 216 201 193 181 180 175 173 175 173 169 167 164 160 159 161 163 164 164 164 162 159 156 152 146 142 141
171 212 240 255 252 264 278 278 266 257 264 253 262 279 287 289 292 277 270 263 265 259 248 224 204 201 183 178 173 172 169 168 167 165 163 159 156 158 160 163 164 163 162 158 155 147 146 147 148
207 242 242 261 268 270 269 273 269 241 251 262 262 272 284 291 284 276 275 272 264 259 256 240 212 205 190 183 178 173 172 168 168 168 165 161 160 160 162 166 166 166 166 160 156 152 152 152 156
226 262 263 266 276 268 267 262 264 263 266 273 278 282 277 276 277 269 265 267 260 253 245 248 227 216 196 184 186 177 180 178 174 173 173 170 167 169 167 169 171 172 170 166 162 158 157 157 160
245 264 282 281 271 266 262 273 258 269 273 280 278 278 276 272 272 275 269 257 259 253 243 234 230 223 195 184 187 180 180 181 178 179 180 177 173 172 173 174 176 179 178 176 172 167 163 163 164
287 303 305 285 270 275 280 294 264 274 283 283 283 284 284 283 280 273 266 257 252 252 243 232 223 225 200 188 191 184 177 180 182 181 181 180 177 176 177 179 182 184 182 176 169 163 158 160 169
346 338 311 309 317 302 331 289 299 304 307 287 289 293 299 299 286 274 265 259 253 252 242 231 225 224 210 193 193 187 185 184 184 183 183 185 183 181 179 183 186 183 179 176 173 171 169 173 176
6 319 295 310 331 341 310 283 306 324 325 306 306 310 314 315 309 292 272 260 242 236 235 236 231 228 223 200 192 187 187 192 191 187 187 188 186 184 183 185 185 181 179 179 182 177 170 173 179
270 286 295 296 319 350 300 287 304 323 330 315 313 312 315 319 305 297 284 261 245 230 227 225 231 235 228 205 187 184 188 196 196 189 191 190 187 185 184 183 182 181 182 183 183 179 172 173 168
259 270 288 284 289 309 291 296 305 315 325 322 324 326 320 312 302 303 278 267 262 242 233 226 237 237 224 204 187 190 198 195 198 198 193 193 191 188 185 183 182 184 189 188 182 179 173 174 151
253 281 291 295 296 281 295 296 302 309 309 313 325 333 330 321 322 313 306 306 274 253 245 242 245 244 232 213 194 190 187 190 198 198 190 195 193 191 191 187 187 188 189 187 186 176 176 179 171
258 238 261 283 316 316 316 315 326 329 338 345 343 332 334 334 327 319 315 301 299 291 262 245 248 251 239 217 193 180 172 167 193 200 197 196 194 193 192 192 190 190 190 195 193 188 183 187 194
267 243 247 285 333 323 6 316 315 329 343 348 346 344 342 338 337 338 337 336 332 312 297 265 260 260 248 219 200 193 195 197 211 201 200 199 197 197 196 195 196 194 195 196 197 196 195 184 191
239 274 257 267 270 307 336 263 302 337 340 338 340 339 339 338 344 354 356 353 348 340 337 316 291 275 250 217 208 200 200 204 205 196 200 201 200 200 200 199 200 199 200 200 197 195 199 197 195
248 346 357 26 54 318 286 229 303 320 315 324 331 337 342 343 351 0 -0 4 2 1 356 340 324 300 274 226 216 209 203 201 195 193 202 202 200 200 203 203 204 205 204 203 201 199 200 205 202
52 58 20 4 5 276 292 242 270 297 311 313 324 336 343 349 2 4 2 2 2 2 359 357 352 329 311 264 237 226 212 204 201 200 204 205 206 210 208 209 210 211 211 208 204 202 202 204 205
61 120 139 214 268 297 323 272 275 302 328 337 340 347 356 3 5 2 360 359 359 1 360 0 355 344 334 301 259 224 210 210 207 206 206 211 214 214 211 211 212 212 211 211 205 208 207 205 209
103 109 158 139 300 299 297 298 306 335 358 2 0 5 2 359 359 360 360 1 1 2 359 355 353 346 348 351 345 311 226 216 218 219 213 215 220 218 215 214 213 213 210 209 207 213 209 207 210
114 139 94 99 58 308 310 303 304 320 331 344 351 354 353 354 357 1 0 359 359 355 350 352 359 357 359 5 359 360 350 298 243 232 233 225 225 218 215 218 214 213 211 207 208 213 211 208 212
82 92 105 115 153 172 297 289 271 279 302 324 335 345 351 354 358 359 355 353 355 358 358 358 2 9 6 6 6 3 351 333 314 265 247 239 228 220 218 218 218 217 215 209 209 211 210 212 215
171 169 152 151 239 184 210 274 313 283 299 325 335 346 352 355 354 354 352 355 359 359 1 5 6 5 1 358 4 358 350 352 340 307 286 266 245 231 223 217 218 219 220 217 212 213 213 214 215
Height
1497 1498 1500 1503 1508 1514 1512 1506 1502 1500 1499 1497 1497 1497 1496 1497 1498 1500 1493 1490 1489 1490 1492 1494 1497 1500 1503 1506 1509 1511 1514 1516 1519 1521 1523 1525 1527 1529 1531 1533 1535 1537 1538 1540 1541 1543 1544 1546 1547
1497 1499 1502 1503 1511 1516 1511 1503 1501 1498 1497 1496 1495 1495 1494 1493 1493 1492 1490 1489 1489 1491 1493 1494 1497 1500 1503 1505 1508 1511 1514 1516 1518 1520 1523 1525 1527 1529 1531 1533 1535 1537 1539 1541 1542 1544 1545 1547 1548
1497 1499 1502 1505 1510 1510 1504 1500 1499 1496 1496 1496 1495 1494 1493 1492 1492 1491 1490 1489 1490 1491 1493 1495 1497 1500 1502 1505 1508 1510 1513 1516 1518 1520 1523 1525 1527 1529 1531 1534 1536 1538 1539 1541 1543 1545 1546 1548 1549
1498 1500 1502 1508 1506 1504 1500 1498 1497 1496 1495 1495 1495 1493 1492 1492 1491 1491 1490 1489 1490 1491 1492 1495 1497 1499 1502 1504 1507 1510 1512 1515 1518 1520 1522 1525 1527 1529 1531 1534 1536 1538 1540 1542 1543 1545 1547 1549 1551
1498 1500 1506 1508 1505 1501 1498 1496 1496 1496 1495 1494 1494 1492 1490 1490 1489 1489 1489 1489 1489 1490 1492 1494 1496 1498 1501 1504 1506 1509 1511 1514 1517 1519 1522 1524 1527 1529 1531 1534 1536 1538 1540 1542 1544 1546 1548 1550 1551
1498 1501 1509 1509 1504 1499 1496 1495 1495 1494 1493 1493 1493 1491 1488 1487 1487 1487 1487 1488 1489 1490 1491 1493 1495 1497 1500 1502 1505 1508 1510 1513 1516 1518 1521 1524 1527 1529 1531 1534 1536 1538 1540 1542 1544 1546 1549 1550 1552
1499 1504 1507 1506 1503 1499 1495 1493 1493 1492 1492 1491 1491 1490 1486 1485 1485 1485 1485 1486 1487 1489 1490 1491 1493 1495 1498 1500 1503 1506 1509 1511 1514 1517 1520 1523 1526 1528 1531 1533 1536 1538 1540 1543 1545 1547 1549 1551 1553
1498 1503 1504 1504 1502 1497 1493 1491 1491 1491 1489 1489 1490 1488 1485 1484 1483 1483 1483 1484 1485 1486 1488 1489 1491 1493 1495 1498 1501 1504 1507 1510 1513 1516 1519 1522 1525 1528 1530 1533 1535 1538 1540 1543 1545 1547 1549 1551 1553
1498 1505 1505 1502 1499 1494 1491 1490 1490 1489 1488 1486 1486 1485 1484 1482 1481 1481 1481 1482 1483 1484 1485 1487 1489 1491 1493 1496 1498 1502 1505 1508 1511 1514 1517 1520 1523 1526 1529 1532 1535 1537 1540 1542 1544 1547 1549 1551 1553
1498 1503 1499 1495 1493 1491 1490 1489 1488 1487 1485 1483 1482 1481 1481 1480 1479 1479 1479 1479 1479 1480 1482 1484 1486 1488 1490 1493 1495 1498 1502 1505 1508 1511 1515 1518 1521 1525 1528 1531 1534 1536 1539 1542 1544 1546 1548 1550 1552
1497 1498 1494 1492 1491 1490 1488 1487 1486 1485 1482 1480 1479 1477 1477 1476 1476 1476 1476 1476 1477 1477 1479 1480 1482 1484 1487 1490 1492 1495 1499 1502 1506 1509 1512 1515 1519 1523 1526 1529 1532 1535 1537 1540 1543 1545 1547 1550 1552
1496 1493 1492 1489 1488 1488 1487 1485 1483 1481 1477 1476 1476 1475 1473 1472 1472 1472 1472 1472 1473 1474 1475 1477 1479 1481 1484 1486 1489 1492 1495 1499 1502 1506 1509 1512 1516 1519 1523 1526 1529 1532 1535 1538 1541 1544 1546 1549 1551
1493 1491 1489 1487 1486 1485 1484 1482 1480 1475 1473 1473 1471 1470 1469 1468 1468 1468 1468 1469 1469 1470 1471 1472 1475 1478 1480 1483 1486 1489 1492 1495 1498 1502 1506 1509 1513 1516 1520 1524 1527 1530 1533 1536 1539 1542 1545 1547 1549
1491 1489 1487 1485 1483 1482 1481 1478 1477 1470 1470 1468 1467 1466 1465 1465 1464 1464 1464 1464 1465 1466 1468 1469 1471 1474 1476 1479 1482 1485 1488 1491 1495 1498 1502 1506 1510 1513 1517 1520 1524 1527 1531 1534 1537 1540 1542 1545 1548
1489 1489 1485 1482 1480 1479 1479 1476 1473 1468 1466 1465 1463 1462 1461 1460 1459 1459 1460 1461 1461 1462 1464 1465 1467 1469 1472 1475 1478 1482 1485 1488 1490 1494 1498 1502 1506 1510 1513 1517 1521 1524 1528 1531 1534 1537 1540 1543 1545
1489 1490 1489 1483 1480 1479 1482 1478 1471 1467 1464 1462 1460 1459 1457 1456 1455 1456 1457 1457 1457 1459 1460 1462 1463 1465 1467 1470 1474 1478 1481 1483 1486 1490 1494 1498 1502 1506 1510 1513 1517 1521 1525 1528 1531 1534 1537 1539 1542
1492 1494 1491 1486 1481 1480 1481 1478 1470 1466 1462 1460 1458 1456 1455 1453 1452 1453 1453 1454 1455 1455 1456 1458 1459 1462 1464 1467 1470 1473 1476 1480 1483 1486 1490 1494 1497 1502 1505 1509 1513 1517 1521 1524 1527 1530 1533 1536 1539
1494 1494 1492 1489 1483 1482 1481 1476 1469 1465 1462 1459 1456 1454 1453 1452 1451 1451 1451 1451 1451 1451 1452 1454 1457 1459 1460 1463 1466 1469 1472 1475 1479 1482 1485 1489 1493 1497 1501 1505 1509 1513 1516 1520 1523 1526 1530 1533 1536
1491 1492 1491 1487 1483 1483 1479 1474 1468 1464 1461 1458 1455 1453 1451 1450 1449 1448 1448 1447 1447 1447 1449 1451 1453 1454 1456 1458 1460 1464 1467 1470 1474 1477 1481 1485 1488 1492 1496 1500 1504 1508 1511 1515 1519 1522 1525 1528 1532
1491 1491 1490 1485 1482 1481 1478 1473 1467 1463 1461 1458 1455 1452 1450 1448 1446 1445 1444 1443 1444 1445 1446 1448 1449 1450 1452 1452 1456 1460 1463 1466 1469 1473 1476 1480 1484 1487 1491 1495 1499 1502 1507 1510 1514 1517 1520 1523 1526
1489 1490 1488 1486 1482 1479 1478 1471 1466 1462 1460 1458 1456 1453 1450 1447 1445 1443 1441 1441 1441 1442 1443 1444 1445 1446 1447 1449 1452 1455 1458 1461 1464 1467 1470 1475 1478 1482 1486 1490 1493 1497 1501 1504 1508 1511 1514 1517 1521
1488 1484 1484 1484 1486 1485 1484 1482 1469 1464 1461 1458 1455 1452 1449 1446 1443 1441 1440 1440 1439 1439 1439 1440 1441 1442 1443 1445 1447 1450 1452 1455 1458 1462 1465 1469 1473 1477 1480 1484 1488 1491 1495 1499 1502 1506 1509 1512 1515
1485 1482 1483 1484 1485 1486 1485 1484 1474 1467 1463 1459 1456 1452 1449 1446 1443 1440 1439 1439 1438 1437 1437 1437 1439 1439 1440 1441 1444 1446 1448 1451 1454 1458 1461 1464 1467 1471 1475 1479 1482 1485 1489 1493 1496 1499 1503 1506 1508
1483 1483 1484 1486 1487 1488 1485 1485 1477 1471 1466 1461 1456 1452 1449 1446 1443 1441 1439 1438 1437 1436 1436 1436 1436 1436 1437 1438 1440 1442 1444 1447 1449 1452 1456 1458 1462 1465 1469 1473 1476 1480 1483 1486 1490 1493 1496 1499 1502
1485 1489 1494 1493 1496 1489 1483 1482 1476 1468 1465 1462 1458 1453 1450 1447 1444 1441 1439 1438 1437 1435 1435 1434 1434 1434 1435 1435 1436 1438 1440 1443 1445 1448 1451 1453 1456 1459 1463 1467 1470 1473 1476 1480 1483 1486 1489 1493 1496
1486 1488 1495 1495 1495 1491 1484 1481 1473 1467 1464 1461 1458 1455 1451 1448 1445 1443 1440 1439 1437 1435 1434 1433 1433 1432 1432 1433 1433 1435 1437 1439 1441 1444 1446 1449 1451 1454 1458 1461 1464 1467 1470 1473 1476 1480 1482 1486 1489
1486 1490 1491 1497 1499 1496 1487 1481 1471 1466 1464 1462 1459 1456 1453 1450 1447 1444 1442 1439 1437 1435 1434 1433 1432 1431 1430 1430 1431 1431 1433 1435 1437 1439 1442 1444 1447 1449 1452 1455 1458 1461 1464 1467 1469 1473 1475 1478 1482
1486 1489 1494 1496 1494 1490 1486 1483 1477 1468 1465 1463 1460 1457 1454 1451 1448 1445 1443 1440 1438 1436 1434 1433 1431 1430 1429 1428 1429 1429 1430 1432 1433 1435 1437 1439 1441 1444 1446 1449 1451 1454 1457 1460 1463 1465 1468 1471 1474
1488 1490 1492 1497 1496 1496 1491 1481 1472 1469 1467 1465 1462 1459 1456 1453 1450 1448 1445 1442 1439 1437 1434 1432 1430 1430 1429 1428 1427 1427 1428 1429 1430 1431 1433 1435 1437 1438 1441 1443 1445 1447 1450 1453 1455 1458 1461 1464 1467
1486 1488 1491 1494 1496 1499 1497 1486 1470 1468 1467 1466 1464 1461 1458 1456 1453 1449 1446 1443 1440 1437 1435 1432 1431 1429 1428 1427 1427 1426 1426 1427 1428 1429 1430 1431 1432 1434 1435 1437 1439 1441 1443 1446 1448 1450 1454 1456 1459